OBJECT C, 63984

Orbit data source: Space-Track

You're viewing an Uncataloged Satellite

Recently launched and/or uncataloged satellites may have evolving metadata. Metadata may include but not limited to: Owner, Maufacturer, Bus, Motor, and Mission.

OBJECT C, 63984 is a Chinese satellite in SSO that was launched on Wed, 14 May 2025 UTC via a CHANG ZHENG 2D launch vehicle from the Jiuquan Satellite Launch Center, China (JSC). Unknown objects in Earth's orbit typically refer to objects detected orbiting the Earth but have not yet been identified or cataloged. These objects could be anything from previously untracked satellites, spent rocket stages, debris from satellite collisions, or even natural meteoroids temporarily captured by Earth's gravity.

Loading next visibility...
Identifier
63984, 2025-100C
Orbit
SSO
Last TLE update
9 hours ago
Origin
Flag of CNCN / PRC
Manufacturer
Unknown
Mission
Operational spacecraft
Bus & Motor
Unknown
Mass
Unknown
Launch date (UTC)
2025-05-14 (1 month ago)
Launch vehicle
CHANG ZHENG 2D
Launch site
Jiuquan Satellite Launch Center, China (JSC)
Object type
Unknown
Shape & HBR
Unknown
Radar Cross Section
Medium (>0.1 m² and <1 m²)

Expand to show TLE details & history

TLE from 9 hours ago
0 OBJECT C
1 63984U 25100C   25169.87933573  .00008327  00000-0  40474-3 0  9998
2 63984  97.4048 244.9176 0010184 189.3712 170.7334 15.18632575  5410
Epoch: 2025-06-18T21:06Z
TLE epoch observation values (Epoch: 2025-06-18T21:06:14.607Z)
Latitude
Longitude
21.0017°
Altitude
519.986 km
Speed
7.6 km/s
True Right ascension
16h 19m 40s
True Declination
0° 00' 00"
Sunlit
Object was in full shadow at epoch
Visualization orbit readout
Latitude
-10.87424°
Longitude
-160.06419°
Altitude
508.08 km
Speed
7.613 km/s
Apparent Right ascension
04h 26m 16s
Apparent Declination
-24° 43' 34"
Sunlit
Object is in daylight
Visualization observer readout
Local Sidereal Time
16:41:17
Azimuth
12.846° NNE
Elevation
-74.487°
Doppler factor
1
Orbital elements
Apogee altitude
513.952 km
Perigee altitude
499.928 km
Semi-major axis
6,885.077 km
Eccentricity
0.00102
Inclination
97.4048°
RAAN
244.9176°
Arg. of periapsis
189.3712°
True anomaly
Unknown
Mean anomaly
170.7334°
Eccentric anomaly
Unknown
Mean motion
3.79909 °/min
Orbital period
94.76 mins
BSTAR
0.00040474
Loading maneuver chart data...
Loading SW <> Apogee altitude chart data...
Loading historical data...
Loading historical data...
Loading historical data...
Loading historical data...
Loading historical data...
Loading historical data...
Loading historical data...

OBJECT C Visibility forecast

Observer location: undefined°, undefined°

Span
Click to sort rows by Start time (UTC) header in descending order
Start Az.
Max El. time (UTC)
Max El. Az.
Max El.
End time (UTC)
End Az.
6 mins2025-06-19 18:12:54.516Z358.736° N2025-06-19 18:15:54.516Z305.28° NW35.081°2025-06-19 18:18:54.516Z216.915° SW
5 mins2025-06-20 04:52:54.516Z147.85° SSE2025-06-20 04:54:54.516Z48.973° ENE41.162°2025-06-20 04:57:54.516Z355.659° N
|